Time,TemperatureF,DewpointF,PressureIn,WindDirection,WindDirectionDegrees,WindSpeedMPH,WindSpeedGustMPH,Humidity,HourlyPrecipIn,Conditions,Clouds,dailyrainin,SoftwareType,DateUTC
2013-04-07 00:03:00,39.9,36.0,29.88,South,180,6.5,9.2,86,0.00,,,0.00,WUHU21623XXSP,2013-04-07 07:03:00,
2013-04-07 00:08:00,40.3,36.4,29.88,SSE,157,9.6,10.5,86,0.00,,,0.00,WUHU21623XXSP,2013-04-07 07:08:00,
2013-04-07 00:13:00,40.3,36.4,29.88,SSE,157,9.6,10.5,86,0.00,,,0.00,WUHU21623XXSP,2013-04-07 07:13:00,
2013-04-07 00:18:00,40.5,36.6,29.88,South,180,7.2,9.6,86,0.00,,,0.00,WUHU21623XXSP,2013-04-07 07:18:00,
2013-04-07 00:23:00,40.6,36.7,29.88,South,180,6.3,8.5,86,0.00,,,0.00,WUHU21623XXSP,2013-04-07 07:23:00,
2013-04-07 00:28:00,40.6,36.7,29.88,South,180,8.3,8.5,86,0.00,,,0.00,WUHU21623XXSP,2013-04-07 07:28:00,
2013-04-07 00:33:00,40.6,36.7,29.88,South,180,6.9,10.7,86,0.00,,,0.00,WUHU21623XXSP,2013-04-07 07:33:00,
2013-04-07 00:38:00,40.6,36.7,29.88,South,180,9.2,10.7,86,0.00,,,0.00,WUHU21623XXSP,2013-04-07 07:38:00,
2013-04-07 00:43:00,40.8,36.6,29.87,SSE,157,8.9,9.2,85,0.00,,,0.00,WUHU21623XXSP,2013-04-07 07:43:00,
2013-04-07 00:48:00,40.6,36.4,29.87,SSE,157,8.9,8.9,85,0.00,,,0.00,WUHU21623XXSP,2013-04-07 07:48:00,
2013-04-07 00:53:00,40.8,36.6,29.87,South,180,11.0,11.0,85,0.00,,,0.00,WUHU21623XXSP,2013-04-07 07:53:00,
2013-04-07 00:58:00,40.8,36.6,29.87,South,180,11.2,11.2,85,0.00,,,0.00,WUHU21623XXSP,2013-04-07 07:58:00,
2013-04-07 01:03:00,40.8,36.6,29.87,South,180,11.2,11.2,85,0.00,,,0.00,WUHU21623XXSP,2013-04-07 08:03:00,
2013-04-07 01:08:00,40.6,36.7,29.87,SSW,202,14.5,14.5,86,0.00,,,0.00,WUHU21623XXSP,2013-04-07 08:08:00,
2013-04-07 01:13:00,40.6,36.7,29.87,SSW,202,11.4,15.9,86,0.00,,,0.00,WUHU21623XXSP,2013-04-07 08:13:00,
2013-04-07 01:18:00,40.5,36.6,29.87,SSW,202,10.1,19.7,86,0.00,,,0.00,WUHU21623XXSP,2013-04-07 08:18:00,
2013-04-07 01:23:00,40.3,36.7,29.87,SSW,202,14.1,19.7,87,0.00,,,0.00,WUHU21623XXSP,2013-04-07 08:23:00,
2013-04-07 01:28:00,40.3,36.7,29.86,South,180,6.7,14.1,87,0.00,,,0.00,WUHU21623XXSP,2013-04-07 08:28:00,
2013-04-07 01:33:00,40.1,36.5,29.86,SSW,202,7.4,9.2,87,0.00,,,0.00,WUHU21623XXSP,2013-04-07 08:33:00,
2013-04-07 01:38:00,39.9,36.3,29.86,South,180,8.1,10.1,87,0.00,,,0.00,WUHU21623XXSP,2013-04-07 08:38:00,
2013-04-07 01:43:00,39.9,36.3,29.86,SSW,202,8.5,10.1,87,0.00,,,0.00,WUHU21623XXSP,2013-04-07 08:43:00,
2013-04-07 01:48:00,39.9,36.3,29.86,South,180,8.3,8.5,87,0.00,,,0.00,WUHU21623XXSP,2013-04-07 08:48:00,
2013-04-07 01:53:00,39.9,36.3,29.86,South,180,11.0,11.0,87,0.00,,,0.00,WUHU21623XXSP,2013-04-07 08:53:00,
2013-04-07 01:58:00,39.7,36.1,29.85,South,180,7.8,11.0,87,0.00,,,0.00,WUHU21623XXSP,2013-04-07 08:58:00,
2013-04-07 02:03:00,39.9,36.3,29.85,SSE,157,5.1,8.1,87,0.00,,,0.00,WUHU21623XXSP,2013-04-07 09:03:00,
2013-04-07 02:08:00,39.7,36.1,29.84,South,180,8.5,8.5,87,0.00,,,0.00,WUHU21623XXSP,2013-04-07 09:08:00,
2013-04-07 02:13:00,39.7,36.1,29.84,South,180,6.0,8.5,87,0.00,,,0.00,WUHU21623XXSP,2013-04-07 09:13:00,
2013-04-07 02:18:00,39.7,36.1,29.84,SSW,202,8.7,8.7,87,0.00,,,0.00,WUHU21623XXSP,2013-04-07 09:18:00,
2013-04-07 02:23:00,39.6,36.0,29.83,South,180,8.3,9.6,87,0.00,,,0.00,WUHU21623XXSP,2013-04-07 09:23:00,
2013-04-07 02:28:00,39.6,36.0,29.83,SSW,202,10.7,10.7,87,0.00,,,0.00,WUHU21623XXSP,2013-04-07 09:28:00,
2013-04-07 02:33:00,39.6,36.2,29.83,South,180,5.4,10.7,88,0.00,,,0.00,WUHU21623XXSP,2013-04-07 09:33:00,
2013-04-07 02:38:00,39.4,36.0,29.83,South,180,4.7,8.1,88,0.00,,,0.00,WUHU21623XXSP,2013-04-07 09:38:00,
2013-04-07 02:44:00,39.4,36.3,29.83,SSE,157,7.6,8.1,89,0.00,,,0.00,WUHU21623XXSP,2013-04-07 09:44:00,
2013-04-07 02:49:00,39.4,36.3,29.82,South,180,8.5,8.5,89,0.00,,,0.00,WUHU21623XXSP,2013-04-07 09:49:00,
2013-04-07 02:54:00,39.4,36.3,29.82,South,180,7.8,8.5,89,0.00,,,0.00,WUHU21623XXSP,2013-04-07 09:54:00,
2013-04-07 02:59:00,39.4,36.6,29.82,South,180,8.3,8.5,90,0.00,,,0.00,WUHU21623XXSP,2013-04-07 09:59:00,
2013-04-07 03:04:00,39.4,36.6,29.81,SSE,157,8.5,8.5,90,0.00,,,0.00,WUHU21623XXSP,2013-04-07 10:04:00,
2013-04-07 03:09:00,39.4,36.6,29.81,SSE,157,7.4,8.5,90,0.00,,,0.00,WUHU21623XXSP,2013-04-07 10:09:00,
2013-04-07 03:14:00,39.4,36.9,29.81,SSE,157,7.8,8.5,91,0.00,,,0.00,WUHU21623XXSP,2013-04-07 10:14:00,
2013-04-07 03:19:00,39.4,36.9,29.80,SSE,157,7.6,8.5,91,0.00,,,0.00,WUHU21623XXSP,2013-04-07 10:19:00,
2013-04-07 03:25:00,39.0,36.5,29.80,SSE,157,6.9,8.3,91,0.00,,,0.00,WUHU21623XXSP,2013-04-07 10:25:00,
2013-04-07 03:30:00,39.0,36.8,29.80,SSE,157,8.7,8.7,92,0.00,,,0.00,WUHU21623XXSP,2013-04-07 10:30:00,
2013-04-07 03:35:00,39.0,36.8,29.79,SSE,157,6.0,8.7,92,0.00,,,0.00,WUHU21623XXSP,2013-04-07 10:35:00,
2013-04-07 03:40:00,39.0,36.8,29.79,SSE,157,4.7,8.7,92,0.00,,,0.00,WUHU21623XXSP,2013-04-07 10:40:00,
2013-04-07 03:45:00,39.0,36.8,29.78,SSE,157,0.0,6.0,92,0.00,,,0.00,WUHU21623XXSP,2013-04-07 10:45:00,
2013-04-07 03:50:00,39.0,36.8,29.78,SSE,157,0.0,0.0,92,0.00,,,0.00,WUHU21623XXSP,2013-04-07 10:50:00,
2013-04-07 03:55:00,39.0,37.0,29.78,SSE,157,5.4,5.6,93,0.00,,,0.00,WUHU21623XXSP,2013-04-07 10:55:00,
2013-04-07 04:00:00,39.0,37.0,29.78,SE,135,5.6,7.8,93,0.00,,,0.00,WUHU21623XXSP,2013-04-07 11:00:00,
2013-04-07 04:05:00,39.0,37.0,29.78,SE,135,7.2,8.3,93,0.00,,,0.00,WUHU21623XXSP,2013-04-07 11:05:00,
2013-04-07 04:10:00,39.0,37.0,29.77,SE,135,6.5,8.3,93,0.00,,,0.00,WUHU21623XXSP,2013-04-07 11:10:00,
2013-04-07 04:15:00,39.0,37.0,29.77,SE,135,7.2,7.2,93,0.00,,,0.00,WUHU21623XXSP,2013-04-07 11:15:00,
2013-04-07 04:20:00,39.0,37.0,29.77,SE,135,7.2,7.2,93,0.00,,,0.00,WUHU21623XXSP,2013-04-07 11:20:00,
2013-04-07 04:25:00,39.0,37.0,29.76,SE,135,0.0,7.2,93,0.00,,,0.00,WUHU21623XXSP,2013-04-07 11:25:00,
2013-04-07 04:30:00,38.8,37.1,29.76,SE,135,7.4,7.4,94,0.00,,,0.00,WUHU21623XXSP,2013-04-07 11:30:00,
2013-04-07 04:35:00,38.8,37.1,29.76,SE,135,1.8,7.4,94,0.00,,,0.00,WUHU21623XXSP,2013-04-07 11:35:00,
2013-04-07 04:40:00,38.8,37.1,29.76,SE,135,4.5,5.4,94,0.00,,,0.00,WUHU21623XXSP,2013-04-07 11:40:00,
2013-04-07 04:45:00,38.8,37.4,29.76,SE,135,6.3,8.3,95,0.02,,,0.00,WUHU21623XXSP,2013-04-07 11:45:00,
2013-04-07 04:50:00,38.8,37.4,29.76,SE,135,4.5,8.3,95,0.02,,,0.02,WUHU21623XXSP,2013-04-07 11:50:00,
2013-04-07 04:55:00,38.7,37.6,29.76,SE,135,3.4,5.1,96,0.02,,,0.02,WUHU21623XXSP,2013-04-07 11:55:00,
2013-04-07 05:00:00,38.5,37.4,29.76,SSE,157,6.9,6.9,96,0.02,,,0.02,WUHU21623XXSP,2013-04-07 12:00:00,
2013-04-07 05:05:00,38.5,37.4,29.75,SE,135,5.8,6.9,96,0.02,,,0.02,WUHU21623XXSP,2013-04-07 12:05:00,
2013-04-07 05:10:00,38.5,37.4,29.75,SE,135,7.4,7.4,96,0.02,,,0.02,WUHU21623XXSP,2013-04-07 12:10:00,
2013-04-07 05:15:00,38.5,37.4,29.75,SE,135,6.9,7.4,96,0.02,,,0.02,WUHU21623XXSP,2013-04-07 12:15:00,
2013-04-07 05:20:00,38.5,37.4,29.75,SE,135,1.1,6.9,96,0.02,,,0.02,WUHU21623XXSP,2013-04-07 12:20:00,
2013-04-07 05:25:00,38.5,37.4,29.75,SE,135,6.5,6.5,96,0.02,,,0.02,WUHU21623XXSP,2013-04-07 12:25:00,
2013-04-07 05:30:00,38.3,37.2,29.75,SE,135,2.5,7.4,96,0.02,,,0.02,WUHU21623XXSP,2013-04-07 12:30:00,
2013-04-07 05:35:00,38.3,37.2,29.75,SSE,157,0.0,7.4,96,0.02,,,0.02,WUHU21623XXSP,2013-04-07 12:35:00,
2013-04-07 05:40:00,38.3,37.2,29.75,SE,135,6.3,6.3,96,0.02,,,0.02,WUHU21623XXSP,2013-04-07 12:40:00,
2013-04-07 05:45:00,38.1,37.0,29.74,SE,135,0.0,8.5,96,0.00,,,0.02,WUHU21623XXSP,2013-04-07 12:45:00,
2013-04-07 05:50:00,38.1,37.0,29.74,SE,135,0.0,8.5,96,0.00,,,0.02,WUHU21623XXSP,2013-04-07 12:50:00,
2013-04-07 05:55:00,38.1,37.0,29.74,SE,135,0.0,0.0,96,0.02,,,0.04,WUHU21623XXSP,2013-04-07 12:55:00,
2013-04-07 06:01:00,38.1,37.0,29.74,SE,135,0.0,0.0,96,0.02,,,0.04,WUHU21623XXSP,2013-04-07 13:01:00,
2013-04-07 06:06:00,38.1,37.0,29.73,SE,135,2.9,6.7,96,0.02,,,0.04,WUHU21623XXSP,2013-04-07 13:06:00,
2013-04-07 06:10:00,38.1,37.0,29.73,SE,135,9.2,9.2,96,0.04,,,0.04,WUHU21623XXSP,2013-04-07 13:10:00,
2013-04-07 06:15:00,38.1,37.0,29.73,SSE,157,10.1,10.1,96,0.04,,,0.06,WUHU21623XXSP,2013-04-07 13:15:00,
2013-04-07 06:21:00,38.1,37.0,29.73,ESE,112,8.7,10.1,96,0.04,,,0.06,WUHU21623XXSP,2013-04-07 13:21:00,
2013-04-07 06:26:00,38.1,37.0,29.73,SE,135,12.8,12.8,96,0.04,,,0.06,WUHU21623XXSP,2013-04-07 13:26:00,
2013-04-07 06:31:00,38.1,37.0,29.73,SE,135,5.6,12.8,96,0.04,,,0.06,WUHU21623XXSP,2013-04-07 13:31:00,
2013-04-07 06:36:00,38.1,37.0,29.73,SE,135,9.6,9.6,96,0.06,,,0.06,WUHU21623XXSP,2013-04-07 13:36:00,
2013-04-07 06:41:00,38.1,37.0,29.72,SE,135,0.0,9.6,96,0.06,,,0.08,WUHU21623XXSP,2013-04-07 13:41:00,
2013-04-07 06:46:00,37.9,37.0,29.72,SE,135,5.6,7.2,97,0.06,,,0.08,WUHU21623XXSP,2013-04-07 13:46:00,
2013-04-07 06:51:00,37.9,37.0,29.72,ESE,112,2.7,7.2,97,0.06,,,0.08,WUHU21623XXSP,2013-04-07 13:51:00,
2013-04-07 06:56:00,37.9,37.0,29.72,ESE,112,6.9,6.9,97,0.06,,,0.10,WUHU21623XXSP,2013-04-07 13:56:00,
2013-04-07 07:02:00,37.9,37.0,29.71,ESE,112,6.0,6.9,97,0.06,,,0.10,WUHU21623XXSP,2013-04-07 14:02:00,
2013-04-07 07:07:00,37.9,37.0,29.71,ESE,112,5.8,6.0,97,0.06,,,0.10,WUHU21623XXSP,2013-04-07 14:07:00,
2013-04-07 07:12:00,37.8,36.9,29.71,ESE,112,10.3,12.3,97,0.04,,,0.10,WUHU21623XXSP,2013-04-07 14:12:00,
2013-04-07 07:17:00,37.8,36.9,29.71,ESE,112,8.5,13.0,97,0.04,,,0.10,WUHU21623XXSP,2013-04-07 14:17:00,
2013-04-07 07:22:00,37.8,36.9,29.71,ESE,112,6.7,13.0,97,0.04,,,0.10,WUHU21623XXSP,2013-04-07 14:22:00,
2013-04-07 07:27:00,37.8,36.9,29.70,ESE,112,7.4,8.5,97,0.06,,,0.10,WUHU21623XXSP,2013-04-07 14:27:00,
2013-04-07 07:32:00,37.8,36.9,29.70,East,90,7.2,8.9,97,0.06,,,0.12,WUHU21623XXSP,2013-04-07 14:32:00,
2013-04-07 07:37:00,37.8,36.9,29.70,SE,135,5.8,13.0,97,0.04,,,0.12,WUHU21623XXSP,2013-04-07 14:37:00,
2013-04-07 07:43:00,37.8,36.9,29.70,ESE,112,10.3,13.0,97,0.04,,,0.12,WUHU21623XXSP,2013-04-07 14:43:00,
2013-04-07 07:48:00,37.6,36.7,29.69,ESE,112,4.7,10.3,97,0.04,,,0.12,WUHU21623XXSP,2013-04-07 14:48:00,
2013-04-07 07:53:00,37.6,36.7,29.69,ESE,112,8.5,8.5,97,0.02,,,0.12,WUHU21623XXSP,2013-04-07 14:53:00,
2013-04-07 07:58:00,37.6,36.7,29.69,ESE,112,8.1,8.5,97,0.04,,,0.14,WUHU21623XXSP,2013-04-07 14:58:00,
2013-04-07 08:03:00,37.4,36.5,29.69,ESE,112,9.2,9.2,97,0.04,,,0.14,WUHU21623XXSP,2013-04-07 15:03:00,
2013-04-07 08:08:00,37.2,36.3,29.69,ESE,112,6.7,9.6,97,0.04,,,0.14,WUHU21623XXSP,2013-04-07 15:08:00,
2013-04-07 08:13:00,37.2,36.3,29.69,ESE,112,12.5,13.0,97,0.04,,,0.14,WUHU21623XXSP,2013-04-07 15:13:00,
2013-04-07 08:18:00,37.2,36.3,29.68,ESE,112,4.3,13.0,97,0.06,,,0.14,WUHU21623XXSP,2013-04-07 15:18:00,
2013-04-07 08:23:00,37.2,36.3,29.68,ESE,112,6.5,12.5,97,0.06,,,0.16,WUHU21623XXSP,2013-04-07 15:23:00,
2013-04-07 08:28:00,37.4,36.5,29.68,SE,135,13.6,13.6,97,0.06,,,0.16,WUHU21623XXSP,2013-04-07 15:28:00,
2013-04-07 08:33:00,37.4,36.5,29.68,ESE,112,15.4,15.4,97,0.06,,,0.18,WUHU21623XXSP,2013-04-07 15:33:00,
2013-04-07 08:38:00,37.4,36.5,29.68,SE,135,15.0,15.4,97,0.06,,,0.18,WUHU21623XXSP,2013-04-07 15:38:00,
2013-04-07 08:43:00,37.4,36.5,29.68,SE,135,8.1,15.4,97,0.06,,,0.18,WUHU21623XXSP,2013-04-07 15:43:00,
2013-04-07 08:48:00,37.2,36.3,29.68,ESE,112,7.6,13.6,97,0.06,,,0.18,WUHU21623XXSP,2013-04-07 15:48:00,
2013-04-07 08:53:00,37.2,36.3,29.67,ESE,112,10.1,10.1,97,0.04,,,0.18,WUHU21623XXSP,2013-04-07 15:53:00,
2013-04-07 08:58:00,37.4,36.8,29.67,ESE,112,11.0,11.0,98,0.04,,,0.18,WUHU21623XXSP,2013-04-07 15:58:00,
2013-04-07 09:03:00,37.4,36.5,29.66,SE,135,3.8,12.1,97,0.06,,,0.20,WUHU21623XXSP,2013-04-07 16:03:00,
2013-04-07 09:08:00,37.6,36.7,29.67,SE,135,10.5,12.1,97,0.06,,,0.20,WUHU21623XXSP,2013-04-07 16:08:00,
2013-04-07 09:13:00,37.6,36.7,29.66,ESE,112,8.1,10.5,97,0.06,,,0.20,WUHU21623XXSP,2013-04-07 16:13:00,
2013-04-07 09:18:00,37.4,36.5,29.66,SE,135,3.6,13.6,97,0.04,,,0.20,WUHU21623XXSP,2013-04-07 16:18:00,
2013-04-07 09:23:00,37.4,36.5,29.67,SE,135,5.8,13.6,97,0.04,,,0.20,WUHU21623XXSP,2013-04-07 16:23:00,
2013-04-07 09:28:00,37.4,36.5,29.66,SE,135,8.7,8.7,97,0.02,,,0.20,WUHU21623XXSP,2013-04-07 16:28:00,
2013-04-07 09:33:00,37.6,36.7,29.66,ESE,112,0.2,8.7,97,0.02,,,0.20,WUHU21623XXSP,2013-04-07 16:33:00,
2013-04-07 09:38:00,37.9,37.0,29.66,SE,135,0.0,6.9,97,0.02,,,0.20,WUHU21623XXSP,2013-04-07 16:38:00,
2013-04-07 09:43:00,37.9,37.0,29.65,SE,135,5.6,8.3,97,0.02,,,0.20,WUHU21623XXSP,2013-04-07 16:43:00,
2013-04-07 09:48:00,38.1,37.5,29.65,ESE,112,6.7,14.1,98,0.02,,,0.20,WUHU21623XXSP,2013-04-07 16:48:00,
2013-04-07 09:53:00,38.3,37.7,29.65,ESE,112,6.0,14.1,98,0.02,,,0.20,WUHU21623XXSP,2013-04-07 16:53:00,
2013-04-07 09:58:00,38.8,38.2,29.65,ESE,112,4.7,6.0,98,0.02,,,0.20,WUHU21623XXSP,2013-04-07 16:58:00,
2013-04-07 10:03:00,38.8,38.2,29.65,SE,135,2.2,12.3,98,0.02,,,0.22,WUHU21623XXSP,2013-04-07 17:03:00,
2013-04-07 10:08:00,39.0,38.4,29.65,SE,135,2.0,12.3,98,0.02,,,0.22,WUHU21623XXSP,2013-04-07 17:08:00,
2013-04-07 10:13:00,39.0,38.4,29.64,ESE,112,5.1,7.2,98,0.02,,,0.22,WUHU21623XXSP,2013-04-07 17:13:00,
2013-04-07 10:18:00,39.0,38.4,29.64,ESE,112,8.3,9.8,98,0.02,,,0.22,WUHU21623XXSP,2013-04-07 17:18:00,
2013-04-07 10:23:00,39.4,38.8,29.64,SE,135,3.8,9.8,98,0.02,,,0.22,WUHU21623XXSP,2013-04-07 17:23:00,
2013-04-07 10:28:00,39.4,38.8,29.64,ESE,112,12.8,12.8,98,0.02,,,0.22,WUHU21623XXSP,2013-04-07 17:28:00,
2013-04-07 10:33:00,39.6,39.0,29.64,ESE,112,0.0,12.8,98,0.02,,,0.22,WUHU21623XXSP,2013-04-07 17:33:00,
2013-04-07 10:39:00,39.7,39.1,29.64,SE,135,6.9,11.4,98,0.04,,,0.24,WUHU21623XXSP,2013-04-07 17:39:00,
2013-04-07 10:44:00,39.9,39.3,29.64,SE,135,0.0,6.9,98,0.04,,,0.24,WUHU21623XXSP,2013-04-07 17:44:00,
2013-04-07 10:49:00,40.3,39.7,29.64,SE,135,8.3,10.7,98,0.04,,,0.24,WUHU21623XXSP,2013-04-07 17:49:00,
2013-04-07 10:54:00,40.5,39.9,29.64,ESE,112,3.1,10.7,98,0.04,,,0.24,WUHU21623XXSP,2013-04-07 17:54:00,
2013-04-07 10:59:00,40.8,40.2,29.64,ESE,112,0.0,7.2,98,0.04,,,0.24,WUHU21623XXSP,2013-04-07 17:59:00,
2013-04-07 11:04:00,41.2,40.6,29.64,East,90,0.0,0.0,98,0.04,,,0.26,WUHU21623XXSP,2013-04-07 18:04:00,
2013-04-07 11:09:00,41.4,40.8,29.63,ESE,112,0.0,0.0,98,0.04,,,0.26,WUHU21623XXSP,2013-04-07 18:09:00,
2013-04-07 11:14:00,41.4,40.8,29.63,ENE,67,4.5,4.5,98,0.04,,,0.26,WUHU21623XXSP,2013-04-07 18:14:00,
2013-04-07 11:20:00,41.4,40.8,29.63,East,90,2.2,4.5,98,0.04,,,0.26,WUHU21623XXSP,2013-04-07 18:20:00,
2013-04-07 11:25:00,41.4,40.8,29.63,ESE,112,5.1,5.1,98,0.04,,,0.26,WUHU21623XXSP,2013-04-07 18:25:00,
2013-04-07 11:30:00,41.2,40.6,29.63,SSE,157,6.7,6.7,98,0.04,,,0.26,WUHU21623XXSP,2013-04-07 18:30:00,
2013-04-07 11:35:00,41.2,40.6,29.63,NE,45,0.0,8.7,98,0.04,,,0.28,WUHU21623XXSP,2013-04-07 18:35:00,
2013-04-07 11:40:00,41.4,40.8,29.63,SE,135,0.0,8.7,98,0.06,,,0.31,WUHU21623XXSP,2013-04-07 18:40:00,
2013-04-07 11:45:00,41.5,40.9,29.63,SSE,157,0.0,8.1,98,0.06,,,0.31,WUHU21623XXSP,2013-04-07 18:45:00,
2013-04-07 11:50:00,42.1,41.5,29.63,SSW,202,8.3,13.0,98,0.06,,,0.31,WUHU21623XXSP,2013-04-07 18:50:00,
2013-04-07 11:55:00,42.4,41.8,29.62,South,180,6.3,14.3,98,0.06,,,0.31,WUHU21623XXSP,2013-04-07 18:55:00,
2013-04-07 12:00:00,43.2,42.6,29.63,SSW,202,17.7,17.7,98,0.06,,,0.31,WUHU21623XXSP,2013-04-07 19:00:00,
2013-04-07 12:05:00,44.1,43.5,29.63,SSW,202,21.9,21.9,98,0.04,,,0.31,WUHU21623XXSP,2013-04-07 19:05:00,
2013-04-07 12:10:00,45.1,44.5,29.63,SSW,202,8.7,21.9,98,0.04,,,0.31,WUHU21623XXSP,2013-04-07 19:10:00,
2013-04-07 12:15:00,46.6,45.7,29.63,SSW,202,14.1,23.5,97,0.04,,,0.31,WUHU21623XXSP,2013-04-07 19:15:00,
2013-04-07 12:20:00,46.8,45.3,29.63,SSW,202,19.2,23.5,95,0.04,,,0.31,WUHU21623XXSP,2013-04-07 19:20:00,
2013-04-07 12:25:00,46.0,44.0,29.63,SSW,202,15.7,19.2,93,0.04,,,0.31,WUHU21623XXSP,2013-04-07 19:25:00,
2013-04-07 12:30:00,45.3,43.0,29.63,SSW,202,17.4,22.1,92,0.02,,,0.31,WUHU21623XXSP,2013-04-07 19:30:00,
2013-04-07 12:35:00,44.6,42.3,29.63,SSW,202,14.3,22.1,92,0.00,,,0.31,WUHU21623XXSP,2013-04-07 19:35:00,
2013-04-07 12:40:00,44.2,42.2,29.63,SW,225,9.4,16.1,93,0.00,,,0.31,WUHU21623XXSP,2013-04-07 19:40:00,
2013-04-07 12:45:00,44.2,42.2,29.62,South,180,11.2,11.4,93,0.00,,,0.31,WUHU21623XXSP,2013-04-07 19:45:00,
2013-04-07 12:50:00,44.4,42.4,29.62,SSW,202,15.7,19.0,93,0.00,,,0.31,WUHU21623XXSP,2013-04-07 19:50:00,
2013-04-07 12:55:00,44.8,42.8,29.62,SSW,202,14.3,19.0,93,0.00,,,0.31,WUHU21623XXSP,2013-04-07 19:55:00,
2013-04-07 13:00:00,45.1,43.1,29.63,SSW,202,15.0,24.4,93,0.00,,,0.31,WUHU21623XXSP,2013-04-07 20:00:00,
2013-04-07 13:05:00,45.3,43.0,29.63,SSW,202,14.5,24.4,92,0.00,,,0.31,WUHU21623XXSP,2013-04-07 20:05:00,
2013-04-07 13:10:00,45.7,43.7,29.62,SW,225,13.2,14.5,93,0.02,,,0.33,WUHU21623XXSP,2013-04-07 20:10:00,
2013-04-07 13:15:00,46.9,44.3,29.63,SSW,202,13.6,19.5,91,0.02,,,0.33,WUHU21623XXSP,2013-04-07 20:15:00,
2013-04-07 13:21:00,47.1,43.9,29.63,SSW,202,16.3,30.0,89,0.02,,,0.33,WUHU21623XXSP,2013-04-07 20:21:00,
2013-04-07 13:26:00,47.1,43.6,29.63,SSW,202,13.6,30.0,88,0.02,,,0.33,WUHU21623XXSP,2013-04-07 20:26:00,
2013-04-07 13:31:00,47.1,44.2,29.63,SW,225,13.4,13.6,90,0.02,,,0.33,WUHU21623XXSP,2013-04-07 20:31:00,
2013-04-07 13:37:00,47.5,44.0,29.63,SW,225,21.3,21.3,88,0.02,,,0.33,WUHU21623XXSP,2013-04-07 20:37:00,
2013-04-07 13:42:00,47.8,44.3,29.63,SW,225,19.2,25.7,88,0.02,,,0.33,WUHU21623XXSP,2013-04-07 20:42:00,
2013-04-07 13:47:00,47.7,44.2,29.63,SW,225,18.6,25.7,88,0.02,,,0.33,WUHU21623XXSP,2013-04-07 20:47:00,
2013-04-07 13:52:00,47.8,44.6,29.63,SW,225,19.2,19.2,89,0.02,,,0.33,WUHU21623XXSP,2013-04-07 20:52:00,
2013-04-07 13:57:00,48.0,44.5,29.63,SSW,202,12.8,19.2,88,0.02,,,0.33,WUHU21623XXSP,2013-04-07 20:57:00,
2013-04-07 14:02:00,47.8,44.0,29.63,SW,225,21.7,21.7,87,0.02,,,0.33,WUHU21623XXSP,2013-04-07 21:02:00,
2013-04-07 14:07:00,47.1,43.6,29.63,SSW,202,10.5,21.7,88,0.00,,,0.33,WUHU21623XXSP,2013-04-07 21:07:00,
2013-04-07 14:12:00,47.5,44.6,29.63,SW,225,17.0,17.0,90,0.00,,,0.33,WUHU21623XXSP,2013-04-07 21:12:00,
2013-04-07 14:17:00,48.4,44.9,29.64,SW,225,30.2,30.2,88,0.02,,,0.35,WUHU21623XXSP,2013-04-07 21:17:00,
2013-04-07 14:22:00,48.7,44.6,29.64,SW,225,21.3,30.2,86,0.02,,,0.35,WUHU21623XXSP,2013-04-07 21:22:00,
2013-04-07 14:27:00,48.6,43.9,29.64,SW,225,21.3,21.3,84,0.02,,,0.35,WUHU21623XXSP,2013-04-07 21:27:00,
2013-04-07 14:32:00,48.4,43.7,29.65,SW,225,12.5,25.1,84,0.02,,,0.35,WUHU21623XXSP,2013-04-07 21:32:00,
2013-04-07 14:37:00,48.4,43.7,29.65,WSW,247,16.6,25.1,84,0.02,,,0.35,WUHU21623XXSP,2013-04-07 21:37:00,
2013-04-07 14:42:00,48.4,43.7,29.65,SW,225,18.8,20.8,84,0.02,,,0.35,WUHU21623XXSP,2013-04-07 21:42:00,
2013-04-07 14:47:00,48.2,43.5,29.65,WSW,247,8.9,21.9,84,0.02,,,0.35,WUHU21623XXSP,2013-04-07 21:47:00,
2013-04-07 14:52:00,48.4,43.7,29.65,WSW,247,10.5,21.9,84,0.02,,,0.35,WUHU21623XXSP,2013-04-07 21:52:00,
2013-04-07 14:57:00,48.4,43.4,29.65,SW,225,14.8,24.8,83,0.02,,,0.35,WUHU21623XXSP,2013-04-07 21:57:00,
2013-04-07 15:02:00,48.0,42.7,29.65,SW,225,17.0,24.8,82,0.02,,,0.35,WUHU21623XXSP,2013-04-07 22:02:00,
2013-04-07 15:08:00,48.0,42.7,29.65,SW,225,23.9,23.9,82,0.02,,,0.35,WUHU21623XXSP,2013-04-07 22:08:00,
2013-04-07 15:13:00,48.2,43.2,29.65,WSW,247,12.3,23.9,83,0.02,,,0.35,WUHU21623XXSP,2013-04-07 22:13:00,
2013-04-07 15:18:00,48.7,43.1,29.65,SW,225,13.6,20.6,81,0.00,,,0.35,WUHU21623XXSP,2013-04-07 22:18:00,
2013-04-07 15:23:00,49.3,43.7,29.65,SW,225,13.6,19.7,81,0.00,,,0.35,WUHU21623XXSP,2013-04-07 22:23:00,
2013-04-07 15:28:00,50.2,43.6,29.66,WSW,247,14.5,14.5,78,0.00,,,0.35,WUHU21623XXSP,2013-04-07 22:28:00,
2013-04-07 15:33:00,50.2,42.6,29.66,WSW,247,22.4,22.4,75,0.00,,,0.35,WUHU21623XXSP,2013-04-07 22:33:00,
2013-04-07 15:38:00,49.8,42.2,29.66,SW,225,19.5,22.4,75,0.00,,,0.35,WUHU21623XXSP,2013-04-07 22:38:00,
2013-04-07 15:43:00,49.6,42.0,29.67,SW,225,17.2,22.4,75,0.00,,,0.35,WUHU21623XXSP,2013-04-07 22:43:00,
2013-04-07 15:48:00,49.1,41.5,29.67,WSW,247,20.1,22.4,75,0.00,,,0.35,WUHU21623XXSP,2013-04-07 22:48:00,
2013-04-07 15:53:00,49.3,42.1,29.68,SW,225,13.6,22.4,76,0.00,,,0.35,WUHU21623XXSP,2013-04-07 22:53:00,
2013-04-07 15:58:00,49.3,42.1,29.67,WSW,247,20.8,20.8,76,0.00,,,0.35,WUHU21623XXSP,2013-04-07 22:58:00,
2013-04-07 16:03:00,49.6,41.3,29.68,WSW,247,11.4,27.5,73,0.00,,,0.35,WUHU21623XXSP,2013-04-07 23:03:00,
2013-04-07 16:08:00,49.6,40.2,29.68,WSW,247,25.1,27.5,70,0.00,,,0.35,WUHU21623XXSP,2013-04-07 23:08:00,
2013-04-07 16:13:00,48.7,39.4,29.68,WSW,247,14.1,25.1,70,0.00,,,0.35,WUHU21623XXSP,2013-04-07 23:13:00,
2013-04-07 16:18:00,48.6,40.0,29.68,WSW,247,9.4,18.1,72,0.00,,,0.35,WUHU21623XXSP,2013-04-07 23:18:00,
2013-04-07 16:23:00,48.7,40.1,29.68,WSW,247,14.5,17.4,72,0.00,,,0.35,WUHU21623XXSP,2013-04-07 23:23:00,
2013-04-07 16:28:00,48.9,39.9,29.68,SSW,202,6.7,17.2,71,0.00,,,0.35,WUHU21623XXSP,2013-04-07 23:28:00,
2013-04-07 16:33:00,48.4,39.8,29.69,WSW,247,10.3,17.2,72,0.00,,,0.35,WUHU21623XXSP,2013-04-07 23:33:00,
2013-04-07 16:38:00,48.2,40.0,29.69,SW,225,7.4,10.3,73,0.00,,,0.35,WUHU21623XXSP,2013-04-07 23:38:00,
2013-04-07 16:43:00,48.0,39.8,29.69,SW,225,16.6,25.3,73,0.00,,,0.35,WUHU21623XXSP,2013-04-07 23:43:00,
2013-04-07 16:48:00,47.8,39.6,29.70,WSW,247,13.9,25.3,73,0.00,,,0.35,WUHU21623XXSP,2013-04-07 23:48:00,
2013-04-07 16:53:00,48.0,40.1,29.70,SW,225,15.2,18.8,74,0.00,,,0.35,WUHU21623XXSP,2013-04-07 23:53:00,
2013-04-07 16:58:00,48.2,40.3,29.70,SW,225,14.5,23.9,74,0.00,,,0.35,WUHU21623XXSP,2013-04-07 23:58:00,
2013-04-07 17:03:00,48.2,40.3,29.70,SW,225,15.0,23.9,74,0.00,,,0.35,WUHU21623XXSP,2013-04-08 00:03:00,
2013-04-07 17:08:00,48.2,40.3,29.70,SW,225,13.2,15.9,74,0.00,,,0.35,WUHU21623XXSP,2013-04-08 00:08:00,
2013-04-07 17:13:00,48.0,40.1,29.70,WSW,247,17.2,17.2,74,0.00,,,0.35,WUHU21623XXSP,2013-04-08 00:13:00,
2013-04-07 17:18:00,47.5,40.0,29.70,WSW,247,13.2,17.2,75,0.00,,,0.35,WUHU21623XXSP,2013-04-08 00:18:00,
2013-04-07 17:23:00,46.6,39.8,29.70,West,270,7.8,13.2,77,0.00,,,0.35,WUHU21623XXSP,2013-04-08 00:23:00,
2013-04-07 17:28:00,45.7,39.2,29.70,WSW,247,9.6,13.2,78,0.00,,,0.35,WUHU21623XXSP,2013-04-08 00:28:00,
2013-04-07 17:33:00,45.1,38.9,29.70,SW,225,5.1,11.6,79,0.00,,,0.35,WUHU21623XXSP,2013-04-08 00:33:00,
2013-04-07 17:38:00,45.1,38.9,29.71,SW,225,10.5,15.4,79,0.00,,,0.35,WUHU21623XXSP,2013-04-08 00:38:00,
2013-04-07 17:43:00,45.1,38.6,29.71,SW,225,6.5,15.4,78,0.00,,,0.35,WUHU21623XXSP,2013-04-08 00:43:00,
2013-04-07 17:48:00,45.1,38.3,29.71,SW,225,11.2,14.1,77,0.00,,,0.35,WUHU21623XXSP,2013-04-08 00:48:00,
2013-04-07 17:53:00,45.1,38.3,29.71,SW,225,14.1,14.1,77,0.00,,,0.35,WUHU21623XXSP,2013-04-08 00:53:00,
2013-04-07 17:58:00,45.1,38.0,29.71,SW,225,9.2,14.1,76,0.00,,,0.35,WUHU21623XXSP,2013-04-08 00:58:00,
2013-04-07 18:03:00,45.1,38.0,29.71,WSW,247,11.9,11.9,76,0.00,,,0.35,WUHU21623XXSP,2013-04-08 01:03:00,
2013-04-07 18:08:00,45.1,38.0,29.71,SW,225,5.6,11.9,76,0.00,,,0.35,WUHU21623XXSP,2013-04-08 01:08:00,
2013-04-07 18:13:00,45.1,38.0,29.71,SW,225,15.2,15.2,76,0.00,,,0.35,WUHU21623XXSP,2013-04-08 01:13:00,
2013-04-07 18:18:00,45.0,37.9,29.71,SW,225,12.3,15.2,76,0.00,,,0.35,WUHU21623XXSP,2013-04-08 01:18:00,
2013-04-07 18:23:00,45.0,37.9,29.71,SW,225,9.4,12.3,76,0.00,,,0.35,WUHU21623XXSP,2013-04-08 01:23:00,
2013-04-07 18:28:00,44.8,37.7,29.72,SW,225,11.0,11.0,76,0.00,,,0.35,WUHU21623XXSP,2013-04-08 01:28:00,
2013-04-07 18:33:00,44.8,38.0,29.72,SW,225,8.5,11.4,77,0.00,,,0.35,WUHU21623XXSP,2013-04-08 01:33:00,
2013-04-07 18:38:00,44.6,37.8,29.72,SW,225,4.9,11.4,77,0.00,,,0.35,WUHU21623XXSP,2013-04-08 01:38:00,
2013-04-07 18:43:00,44.6,37.8,29.72,SW,225,11.2,11.2,77,0.00,,,0.35,WUHU21623XXSP,2013-04-08 01:43:00,
2013-04-07 18:48:00,44.4,37.6,29.72,SW,225,9.6,11.2,77,0.00,,,0.35,WUHU21623XXSP,2013-04-08 01:48:00,
2013-04-07 18:53:00,44.4,37.3,29.72,SSW,202,7.4,13.2,76,0.00,,,0.35,WUHU21623XXSP,2013-04-08 01:53:00,
2013-04-07 18:58:00,44.2,37.1,29.72,SW,225,7.8,13.2,76,0.00,,,0.35,WUHU21623XXSP,2013-04-08 01:58:00,
2013-04-07 19:03:00,44.2,37.1,29.73,SW,225,8.5,11.2,76,0.00,,,0.35,WUHU21623XXSP,2013-04-08 02:03:00,
2013-04-07 19:08:00,44.2,37.1,29.73,SW,225,8.1,11.2,76,0.00,,,0.35,WUHU21623XXSP,2013-04-08 02:08:00,
2013-04-07 19:13:00,43.9,36.8,29.72,SW,225,7.8,8.1,76,0.00,,,0.35,WUHU21623XXSP,2013-04-08 02:13:00,
2013-04-07 19:18:00,43.7,36.6,29.73,SW,225,7.8,7.8,76,0.00,,,0.35,WUHU21623XXSP,2013-04-08 02:18:00,
2013-04-07 19:23:00,43.5,36.7,29.73,SW,225,7.2,7.8,77,0.00,,,0.35,WUHU21623XXSP,2013-04-08 02:23:00,
2013-04-07 19:28:00,43.2,36.5,29.72,SSW,202,6.0,7.2,77,0.00,,,0.35,WUHU21623XXSP,2013-04-08 02:28:00,
2013-04-07 19:33:00,42.8,36.1,29.73,SSW,202,3.1,6.0,77,0.00,,,0.35,WUHU21623XXSP,2013-04-08 02:33:00,
2013-04-07 19:39:00,42.4,35.7,29.73,SSW,202,6.7,7.4,77,0.00,,,0.35,WUHU21623XXSP,2013-04-08 02:39:00,
2013-04-07 19:44:00,41.9,35.5,29.73,SSW,202,0.0,7.4,78,0.00,,,0.35,WUHU21623XXSP,2013-04-08 02:44:00,
2013-04-07 19:49:00,41.7,35.6,29.73,SSW,202,4.0,6.5,79,0.00,,,0.35,WUHU21623XXSP,2013-04-08 02:49:00,
2013-04-07 19:54:00,41.7,35.6,29.73,SSW,202,0.0,4.0,79,0.00,,,0.35,WUHU21623XXSP,2013-04-08 02:54:00,
2013-04-07 19:59:00,41.5,35.4,29.74,SSW,202,0.0,0.0,79,0.00,,,0.35,WUHU21623XXSP,2013-04-08 02:59:00,
2013-04-07 20:04:00,41.5,35.4,29.74,SSW,202,0.0,0.0,79,0.00,,,0.35,WUHU21623XXSP,2013-04-08 03:04:00,
2013-04-07 20:09:00,41.4,35.3,29.74,SSW,202,3.1,3.1,79,0.00,,,0.35,WUHU21623XXSP,2013-04-08 03:09:00,
2013-04-07 20:14:00,41.2,35.5,29.74,South,180,0.0,3.1,80,0.00,,,0.35,WUHU21623XXSP,2013-04-08 03:14:00,
2013-04-07 20:19:00,41.0,35.3,29.74,South,180,8.3,8.3,80,0.00,,,0.35,WUHU21623XXSP,2013-04-08 03:19:00,
2013-04-07 20:24:00,40.8,35.1,29.75,South,180,0.0,8.3,80,0.00,,,0.35,WUHU21623XXSP,2013-04-08 03:24:00,
2013-04-07 20:29:00,40.8,35.4,29.75,South,180,8.5,8.5,81,0.00,,,0.35,WUHU21623XXSP,2013-04-08 03:29:00,
2013-04-07 20:34:00,40.8,35.4,29.75,South,180,9.2,9.2,81,0.00,,,0.35,WUHU21623XXSP,2013-04-08 03:34:00,
2013-04-07 20:39:00,40.6,35.2,29.75,SSW,202,7.8,12.1,81,0.00,,,0.35,WUHU21623XXSP,2013-04-08 03:39:00,
2013-04-07 20:44:00,40.6,35.2,29.76,South,180,7.8,12.1,81,0.00,,,0.35,WUHU21623XXSP,2013-04-08 03:44:00,
2013-04-07 20:49:00,40.6,35.2,29.76,SSW,202,13.0,13.0,81,0.00,,,0.35,WUHU21623XXSP,2013-04-08 03:49:00,
2013-04-07 20:55:00,40.3,35.2,29.76,South,180,10.3,13.4,82,0.00,,,0.35,WUHU21623XXSP,2013-04-08 03:55:00,
2013-04-07 21:00:00,40.1,35.0,29.76,South,180,9.6,13.4,82,0.00,,,0.35,WUHU21623XXSP,2013-04-08 04:00:00,
2013-04-07 21:05:00,39.9,35.1,29.76,SSW,202,10.5,10.5,83,0.00,,,0.35,WUHU21623XXSP,2013-04-08 04:05:00,
2013-04-07 21:10:00,39.7,35.2,29.76,South,180,9.2,10.5,84,0.00,,,0.35,WUHU21623XXSP,2013-04-08 04:10:00,
2013-04-07 21:15:00,39.6,35.1,29.77,South,180,13.6,13.6,84,0.00,,,0.35,WUHU21623XXSP,2013-04-08 04:15:00,
2013-04-07 21:20:00,39.4,35.2,29.77,South,180,11.9,13.6,85,0.00,,,0.35,WUHU21623XXSP,2013-04-08 04:20:00,
2013-04-07 21:25:00,39.4,35.2,29.77,South,180,11.2,11.9,85,0.00,,,0.35,WUHU21623XXSP,2013-04-08 04:25:00,
2013-04-07 21:30:00,39.0,35.1,29.78,South,180,10.5,11.9,86,0.00,,,0.35,WUHU21623XXSP,2013-04-08 04:30:00,
2013-04-07 21:35:00,38.8,35.2,29.77,South,180,9.4,12.3,87,0.00,,,0.35,WUHU21623XXSP,2013-04-08 04:35:00,
2013-04-07 21:40:00,38.7,35.1,29.78,South,180,12.3,12.3,87,0.00,,,0.35,WUHU21623XXSP,2013-04-08 04:40:00,
2013-04-07 21:45:00,38.5,35.2,29.78,South,180,11.6,14.8,88,0.00,,,0.35,WUHU21623XXSP,2013-04-08 04:45:00,
2013-04-07 21:50:00,38.1,34.8,29.78,South,180,13.6,14.8,88,0.00,,,0.35,WUHU21623XXSP,2013-04-08 04:50:00,
2013-04-07 21:55:00,37.9,34.6,29.78,South,180,10.3,14.1,88,0.00,,,0.35,WUHU21623XXSP,2013-04-08 04:55:00,
2013-04-07 22:00:00,37.8,34.8,29.78,South,180,10.3,14.1,89,0.00,,,0.35,WUHU21623XXSP,2013-04-08 05:00:00,
2013-04-07 22:05:00,37.6,34.6,29.78,South,180,12.8,13.0,89,0.00,,,0.35,WUHU21623XXSP,2013-04-08 05:05:00,
2013-04-07 22:10:00,37.4,34.4,29.78,SSW,202,11.4,12.8,89,0.00,,,0.35,WUHU21623XXSP,2013-04-08 05:10:00,
2013-04-07 22:15:00,37.0,34.2,29.78,South,180,13.9,13.9,90,0.00,,,0.35,WUHU21623XXSP,2013-04-08 05:15:00,
2013-04-07 22:20:00,37.0,34.5,29.78,SSE,157,7.6,13.9,91,0.00,,,0.35,WUHU21623XXSP,2013-04-08 05:20:00,
2013-04-07 22:25:00,36.7,34.2,29.78,South,180,10.3,13.9,91,0.00,,,0.35,WUHU21623XXSP,2013-04-08 05:25:00,
2013-04-07 22:30:00,36.3,34.1,29.79,South,180,10.1,11.9,92,0.00,,,0.35,WUHU21623XXSP,2013-04-08 05:30:00,
2013-04-07 22:35:00,36.3,34.1,29.79,South,180,14.1,16.1,92,0.00,,,0.35,WUHU21623XXSP,2013-04-08 05:35:00,
2013-04-07 22:40:00,36.1,33.9,29.79,South,180,11.0,16.1,92,0.00,,,0.35,WUHU21623XXSP,2013-04-08 05:40:00,
2013-04-07 22:45:00,36.0,34.1,29.79,South,180,13.2,13.2,93,0.00,,,0.35,WUHU21623XXSP,2013-04-08 05:45:00,
2013-04-07 22:50:00,36.0,34.1,29.79,SSE,157,12.8,13.2,93,0.00,,,0.35,WUHU21623XXSP,2013-04-08 05:50:00,
2013-04-07 22:55:00,36.0,34.1,29.80,South,180,11.4,12.8,93,0.00,,,0.35,WUHU21623XXSP,2013-04-08 05:55:00,
2013-04-07 23:00:00,35.8,34.1,29.79,SSE,157,11.0,11.4,94,0.00,,,0.35,WUHU21623XXSP,2013-04-08 06:00:00,
2013-04-07 23:05:00,35.8,34.1,29.79,SSE,157,10.5,11.2,94,0.00,,,0.35,WUHU21623XXSP,2013-04-08 06:05:00,
2013-04-07 23:10:00,35.8,34.1,29.80,SSE,157,11.4,11.4,94,0.00,,,0.35,WUHU21623XXSP,2013-04-08 06:10:00,
2013-04-07 23:16:00,35.6,33.9,29.80,SSE,157,11.2,12.8,94,0.00,,,0.35,WUHU21623XXSP,2013-04-08 06:16:00,
2013-04-07 23:21:00,35.4,33.7,29.80,SSE,157,12.3,12.8,94,0.00,,,0.35,WUHU21623XXSP,2013-04-08 06:21:00,
2013-04-07 23:26:00,35.4,33.7,29.80,South,180,15.0,15.0,94,0.00,,,0.35,WUHU21623XXSP,2013-04-08 06:26:00,
2013-04-07 23:31:00,35.2,33.8,29.80,SSE,157,10.1,15.0,95,0.00,,,0.35,WUHU21623XXSP,2013-04-08 06:31:00,
2013-04-07 23:36:00,35.2,33.8,29.80,South,180,8.7,11.0,95,0.00,,,0.35,WUHU21623XXSP,2013-04-08 06:36:00,
2013-04-07 23:41:00,34.9,33.5,29.81,South,180,10.7,10.7,95,0.00,,,0.35,WUHU21623XXSP,2013-04-08 06:41:00,
2013-04-07 23:46:00,34.9,33.5,29.81,SSE,157,10.3,13.2,95,0.00,,,0.35,WUHU21623XXSP,2013-04-08 06:46:00,
2013-04-07 23:51:00,34.9,33.5,29.81,SSE,157,12.5,13.2,95,0.00,,,0.35,WUHU21623XXSP,2013-04-08 06:51:00,
2013-04-07 23:56:00,34.7,33.3,29.81,South,180,10.3,13.0,95,0.00,,,0.35,WUHU21623XXSP,2013-04-08 06:56:00,